Lid_Strength_Index
-1 -1 -0 2 8 8 11 10 7 9 9 6 5 7 8 7 9 11 1 0 -0 -0 -1 -1 -1 -1 -1 -1 -2 -1 -1 -1 -1 -1 -1 -1 -1 -1 -1 -1 -1 -1 -1 -1 -1 -1 -1 -1 -1
-1 0 1 4 9 12 12 9 9 8 6 5 5 6 7 9 4 4 2 0 -0 -1 -1 -1 -1 -1 -1 -2 -2 -2 -2 -1 -1 -1 -1 -1 -1 -1 -1 -2 -2 -1 -1 -1 -1 -1 -1 -1 -1
-0 1 4 6 9 12 12 9 8 7 6 6 7 5 6 7 4 3 1 -0 -1 -1 -1 -1 -1 -2 -2 -1 -2 -1 -1 -1 -1 -1 -1 -1 -1 -1 -1 -1 -2 -1 -1 -1 -1 -2 -2 -1 -1
2 3 4 7 10 9 9 7 7 7 6 5 6 8 5 2 3 1 -0 -0 -0 -0 -1 -1 -1 -1 -1 -1 -1 -1 -1 -1 -1 -1 -1 -1 -1 -1 -1 -1 -1 -1 -1 -1 -2 -2 -2 -1 -2
3 4 8 9 10 8 7 6 6 7 7 7 6 8 7 3 1 0 0 -0 0 -0 -1 -1 -1 -1 -1 -1 -1 -1 -1 -1 -1 -1 -1 -1 -1 -1 -1 -1 -1 -1 -1 -1 -2 -2 -1 -1 -2
4 6 9 11 10 8 7 6 6 7 6 6 6 7 6 2 2 1 -0 0 -1 -0 -1 -1 -1 -1 -1 -1 -1 -1 -1 -1 -1 -2 -1 -1 -1 -1 -1 -1 -1 -1 -2 -2 -2 -1 -1 -1 -2
5 7 9 10 10 9 8 5 7 7 7 7 5 8 5 3 1 0 -0 -0 -1 -1 -1 -1 -1 -1 -2 -2 -1 -1 -1 -1 -1 -1 -1 -1 -1 -1 -1 -1 -1 -2 -2 -2 -2 -1 -1 -1 -1
6 7 9 9 10 10 7 6 5 6 7 4 4 8 7 3 1 0 -0 0 -0 -0 -1 -1 -1 -1 -1 -1 -1 -2 -1 -1 -1 -2 -2 -2 -1 -1 -1 -1 -2 -1 -1 -2 -2 -2 -2 -1 -1
8 7 10 9 9 9 6 7 5 4 6 5 5 5 3 2 1 1 1 1 1 0 -0 -1 -1 -1 -0 -1 -1 -1 -2 -2 -2 -2 -2 -2 -1 -1 -1 -1 -1 -1 -1 -1 -1 -2 -2 -2 -2
8 7 9 7 7 7 7 7 6 7 7 7 6 3 2 2 2 3 3 2 2 1 0 -1 -1 -1 -1 -1 -2 -2 -2 -2 -2 -2 -2 -1 -2 -2 -1 -2 -2 -1 -1 -1 -1 -1 -1 -2 -1
7 8 6 7 6 5 7 7 5 7 8 6 6 5 3 3 3 3 2 2 2 1 0 -1 -1 -1 -1 -1 -1 -1 -1 -1 -1 -1 -1 -1 -1 -1 -1 -1 -1 -1 -2 -1 -1 -1 -1 -1 -1
8 7 6 6 5 6 7 6 7 6 7 4 4 3 3 3 3 2 2 2 1 1 0 -0 -1 -1 -1 -1 -1 -1 -1 -0 1 1 1 1 1 1 1 1 -0 -1 -1 -1 -1 -1 -1 -1 -1
8 7 6 5 5 6 5 7 7 7 4 3 3 3 4 3 3 2 1 1 2 2 1 1 -0 -1 -1 -1 -1 -1 -1 -1 -0 0 -0 0 0 0 0 -0 0 1 0 -0 -0 -1 -0 -0 -0
6 7 7 6 6 6 7 7 6 6 4 4 4 4 3 3 3 2 2 2 2 1 1 0 0 -1 -1 -1 -1 -1 -1 -0 1 1 1 1 1 1 1 1 1 0 0 1 0 -0 -0 -0 -0
6 8 7 7 6 7 6 9 9 5 4 5 5 4 4 3 2 2 2 2 1 1 0 -0 -0 -1 -1 -1 -1 -0 -0 1 2 2 1 2 2 2 1 2 2 1 0 2 1 0 -0 -0 -1
8 8 11 8 7 7 7 12 7 5 5 6 5 5 4 4 3 2 2 2 1 1 0 -0 0 -1 -1 -1 -0 0 1 2 2 1 2 2 2 2 2 2 2 1 1 2 2 2 2 2 0
9 12 12 10 7 7 8 11 7 5 6 6 5 5 4 4 3 2 2 2 1 1 1 1 1 1 1 0 0 0 1 1 2 2 2 2 2 2 2 3 2 0 1 2 2 2 1 2 2
12 11 11 11 8 8 9 10 7 6 6 6 6 5 5 4 4 2 1 2 2 2 2 2 1 1 1 1 0 1 1 1 2 2 3 2 2 2 3 3 2 1 1 1 1 1 1 1 1
8 8 11 10 8 9 10 10 9 7 6 6 6 5 5 4 3 2 2 2 4 3 3 2 2 1 1 2 2 2 3 2 3 3 2 2 3 3 3 3 2 2 2 2 1 2 2 1 0
9 9 11 10 8 9 10 11 9 7 7 6 6 5 5 4 3 3 3 4 4 3 3 3 2 2 2 2 2 2 2 2 3 3 3 3 3 3 4 3 4 3 3 3 3 3 3 2 0
9 8 11 12 10 9 10 12 11 8 7 6 5 5 4 4 4 4 4 4 4 4 3 2 2 2 2 2 2 3 3 3 4 4 4 3 3 4 4 3 4 4 3 4 4 3 3 4 2
9 8 9 11 11 14 9 14 12 10 9 7 6 5 5 5 4 4 4 4 4 3 2 2 2 2 2 2 3 3 5 5 4 4 4 4 3 3 4 3 3 4 4 4 3 3 3 3 4
10 7 9 9 11 11 12 13 12 10 11 9 7 6 5 5 4 5 5 4 4 2 3 2 2 2 2 2 3 4 4 4 4 4 4 4 4 3 3 3 3 3 4 3 3 3 3 3 4
7 8 9 9 10 14 12 13 14 12 10 8 7 6 6 6 6 5 5 5 4 3 2 2 2 2 2 3 3 3 4 4 4 4 5 5 5 5 3 4 3 3 3 3 3 3 3 3 3
8 10 14 14 14 15 12 13 12 9 8 7 8 6 6 6 6 6 5 5 4 3 2 2 3 3 3 3 3 3 3 3 3 4 5 5 5 5 4 4 4 4 3 3 2 3 3 3 4
9 8 12 16 16 14 12 15 13 9 7 6 6 6 6 7 6 6 5 5 4 3 3 3 4 4 4 3 3 3 3 3 3 4 5 5 5 4 3 4 4 4 3 3 3 3 3 3 3
9 9 8 13 13 14 13 12 10 8 8 7 7 7 7 7 6 6 5 4 3 3 3 4 4 4 4 3 3 3 2 2 2 3 4 4 4 4 3 3 3 3 3 3 3 2 2 2 2
7 7 11 11 17 18 15 15 13 12 10 8 8 7 7 7 7 6 5 4 3 4 4 4 4 4 4 3 3 3 2 2 2 3 4 3 3 3 3 2 3 3 3 3 3 3 2 2 2
8 9 10 10 12 14 16 14 9 10 9 8 7 7 7 6 6 6 4 4 4 5 5 5 4 4 4 3 3 2 2 2 2 3 3 3 3 3 3 3 2 2 2 2 3 3 3 2 3
7 9 9 11 14 13 13 12 8 7 7 7 7 6 5 5 6 5 4 4 4 5 5 5 4 4 4 3 3 2 2 3 3 3 3 2 2 3 3 3 3 2 2 2 3 4 3 3 4